Regional Weather Roundup
Issued by NWS

Home | Current Version | Previous Version | Graphics & Text | Print | Product List | Glossary On
Versions: 1 2 3 4 5 6 7 8 9 10 11 12 13 14 15 16 17 18 19 20 21 22 23 24 25 26 27 28 29 30 31 32 33 34 35 36 37 38 39 40 41 42 43 44 45 46 47 48 49 50
000
ASUS43 KBIS 281701
RWRND

NORTH DAKOTA REGIONAL WEATHER ROUNDUP
NATIONAL WEATHER SERVICE BISMARCK ND
1100 AM CST SAT FEB 28 2015

NOTE: "FAIR" INDICATES FEW OR NO CLOUDS BELOW 12,000 FEET WITH NO
SIGNIFICANT WEATHER AND/OR OBSTRUCTIONS TO VISIBILITY.


NDZ001>003-009>011-017-281800-
NORTHWEST NORTH DAKOTA

CITY           SKY/WX    TMP DP  RH WIND       PRES   REMARKS
WILLISTON      FLURRIES  10   1  67 NW15      30.18S WCI  -7
MINOT          MOSUNNY    9   0  67 W16       30.12R WCI  -8
$$

NDZ018>021-031>035-040>046-281800-
SOUTHWEST NORTH DAKOTA

CITY           SKY/WX    TMP DP  RH WIND       PRES   REMARKS
BISMARCK       CLOUDY    20   9  62 W8        30.12R WCI  10
DICKINSON      SUNNY     13   0  56 NW23      30.10R WCI  -6
GARRISON         N/A     10   2  69 NW22      30.10R WCI -10
HETTINGER ARPT MOSUNNY   16   1  51 NW24      30.10R WCI  -2
$$

NDZ004>008-012>016-024-026-027-054-281800-
NORTHEAST NORTH DAKOTA

CITY           SKY/WX    TMP DP  RH WIND       PRES   REMARKS
GRAND FORKS    PTSUNNY   12   4  70 S22       30.19F WCI  -7
GRND FRKS AFB  CLOUDY    17   6  61 SW14      30.17F WCI   3
DEVILS LAKE    CLOUDY    12   3  67 SW8       30.08F WCI   1
$$

NDZ022-023-025-028>030-036>039-047>053-281800-
SOUTHEAST NORTH DAKOTA

CITY           SKY/WX    TMP DP  RH WIND       PRES   REMARKS
FARGO          FAIR      19   7  59 S15       30.24F WCI   5
JAMESTOWN      CLOUDY    13   5  70 S13       30.11S WCI  -2
$$



USA.gov is the U.S. government's official web portal to all federal, state and local government web resources and services.